GW5622 Weather Reports


time (UTC)temp
F
wind
direction
speed
knots
gust
knots
rain 1hr
in
rain 24hr
in
rain mn
in
humidity
%
barometer
mb
20260505075510 33 360 4.3 11.3 0.00 0.01 0.00 63 1009.0
20260505075003 33 323 5.2 11.3 0.00 0.01 0.00 63 1009.0
20260505074508 33 305 4.3 15.6 0.00 0.01 0.00 63 1009.1
20260505074003 34 304 2.6 15.6 0.00 0.01 0.00 63 1009.0
20260505073505 34 287 4.3 12.2 0.00 0.01 0.00 63 1009.1
20260505073016 34 264 6.1 12.2 0.00 0.01 0.00 63 1009.0
20260505072504 34 296 6.1 13.9 0.00 0.01 0.00 63 1008.9
20260505072007 34 293 5.2 13.9 0.00 0.01 0.00 64 1008.9
20260505071516 34 288 3.5 12.2 0.00 0.01 0.00 64 1009.0
20260505071014 34 273 5.2 12.2 0.00 0.01 0.00 65 1009.0
20260505070508 34 333 5.2 9.6 0.00 0.01 0.00 65 1008.9
20260505070022 35 283 5.2 10.4 0.00 0.01 0.00 67 1008.9
20260505065509 35 314 4.3 12.2 0.00 0.01 0.00 67 1008.8
20260505065008 35 303 5.2 13.0 0.00 0.01 0.00 67 1008.8
20260505064538 35 313 5.2 13.0 0.00 0.01 0.00 65 1008.8
20260505064010 35 342 7.0 12.2 0.00 0.01 0.00 65 1008.8
20260505063504 36 311 6.1 13.0 0.00 0.01 0.00 65 1008.8
20260505063008 36 297 5.2 13.0 0.00 0.01 0.00 66 1008.7
20260505062507 36 293 5.2 13.0 0.00 0.01 0.00 66 1008.7
20260505062007 36 320 7.0 14.8 0.00 0.01 0.00 65 1008.7
20260505061527 36 298 5.2 14.8 0.00 0.01 0.00 67 1008.6
20260505061009 36 287 5.2 9.6 0.00 0.01 0.00 67 1008.5
20260505060510 36 309 5.2 9.6 0.00 0.01 0.00 66 1008.4
20260505060025 36 237 2.6 7.8 0.00 0.01 0.00 66 1008.5
20260505055512 36 288 4.3 9.6 0.00 0.01 0.00 65 1008.4
20260505055010 36 269 4.3 9.6 0.00 0.01 0.00 65 1008.4
20260505054521 36 292 5.2 13.0 0.00 0.01 0.00 65 1008.4
20260505054012 37 256 7.0 14.8 0.00 0.01 0.00 64 1008.6
20260505053512 37 275 6.1 14.8 0.00 0.01 0.00 64 1008.6
20260505053023 37 299 7.8 13.9 0.00 0.01 0.00 64 1008.6
20260505052513 37 264 8.7 13.9 0.00 0.01 0.00 63 1008.5
20260505052005 37 271 4.3 12.2 0.00 0.01 0.00 63 1008.3
20260505051509 37 273 5.2 12.2 0.00 0.01 0.00 62 1008.2
20260505051004 37 285 6.1 14.8 0.00 0.01 0.00 62 1008.2
20260505050508 37 302 7.8 14.8 0.00 0.01 0.00 61 1008.2
20260505041531 39 286 8.7 15.6 0.00 0.01 0.01 57 1008.1
20260505041004 39 268 7.8 14.8 0.00 0.01 0.01 56 1008.0
20260505040505 39 300 9.6 14.8 0.00 0.01 0.01 56 1008.0
20260505040013 39 286 7.8 14.8 0.00 0.01 0.01 56 1008.0
20260505035506 39 315 6.1 14.8 0.00 0.01 0.01 55 1008.0
20260505035008 40 317 7.8 15.6 0.00 0.01 0.01 54 1007.9
20260505034516 40 306 6.1 17.4 0.00 0.01 0.01 54 1008.0
20260505034012 40 260 7.0 17.4 0.00 0.01 0.01 54 1007.9
20260505033515 40 287 5.2 12.2 0.00 0.01 0.01 53 1007.8
20260505033022 40 325 5.2 12.2 0.00 0.01 0.01 53 1007.8
20260505032508 40 306 7.0 12.2 0.00 0.01 0.01 1007.7
20260505032009 40 290 2.6 11.3 0.00 0.01 0.01 53 1007.7
20260505031524 40 306 6.1 11.3 0.00 0.01 0.01 53 1007.7
20260505031008 41 305 7.8 12.2 0.00 0.01 0.01 52 1007.7
20260505030512 0 278 7.0 12.2 0.00 0.01 0.01 52 1007.6
20260505030028 0 275 7.8 11.3 0.00 0.01 0.01 52 1007.6
20260505025503 41 263 6.1 13.9 0.00 0.01 0.01 51 1007.6
20260505025004 41 318 7.8 12.2 0.00 0.01 0.01 51 1007.6
20260505024534 41 291 6.1 12.2 0.00 0.01 0.01 51 1007.6
20260505024007 41 268 5.2 11.3 0.00 0.01 0.01 51 1007.6
20260505023507 41 261 4.3 11.3 0.00 0.01 0.01 51 1007.4
20260505023021 41 317 6.1 12.2 0.00 0.01 0.01 50 1007.3
20260505022510 41 293 5.2 12.2 0.00 0.01 0.01 49 1007.3
20260505022011 41 285 5.2 9.6 0.00 0.01 0.01 1007.3
20260505021522 41 298 4.3 12.2 0.00 0.01 0.01 48 1007.2
20260505021007 41 306 5.2 13.9 0.00 0.01 0.01 48 1007.2
20260505020507 42 310 7.0 15.6 0.00 0.01 0.01 48 1007.1
20260505020027 42 261 10.4 14.8 0.00 0.01 0.01 47 1007.1
20260505015511 42 273 9.6 13.9 0.00 0.01 0.01 47 1006.9
20260505015010 42 313 7.0 13.0 0.00 0.01 0.01 47 1006.9
20260505014512 42 296 4.3 13.9 0.00 0.01 0.01 47 1006.9
20260505014008 42 319 6.1 13.9 0.00 0.01 0.01 46 1006.7
20260505013508 42 226 7.0 13.0 0.00 0.01 0.01 46 1006.6
20260505013022 42 256 7.0 15.6 0.00 0.01 0.01 45 1006.5
20260505012507 42 302 8.7 15.6 0.00 0.01 0.01 45 1006.5
20260505012009 43 307 6.1 14.8 0.00 0.01 0.01 46 1006.5
20260505011522 43 317 8.7 16.5 0.00 0.01 0.01 47 1006.5
20260505011009 43 283 6.1 16.5 0.00 0.01 0.01 47 1006.5
20260505010508 43 275 6.1 15.6 0.00 0.01 0.01 47 1006.5
20260505010024 43 313 10.4 15.6 0.00 0.01 0.01 46 1006.4
20260505005507 43 263 5.2 13.9 0.00 0.01 0.01 47 1006.4
20260505005008 43 278 7.8 15.6 0.00 0.01 0.01 47 1006.2
20260505004530 43 248 7.0 15.6 0.00 0.01 0.01 47 1006.2
20260505004009 43 236 8.7 15.6 0.00 0.01 0.01 47 1006.1
20260505003516 43 270 8.7 15.6 0.00 0.01 0.01 46 1006.2
20260505003016 43 295 7.8 18.2 0.00 0.01 0.01 46 1006.2
20260505002508 43 272 9.6 18.2 0.00 0.01 0.01 46 1006.2
20260505002007 43 281 8.7 20.0 0.00 0.01 0.01 45 1006.1
20260505001521 43 290 7.8 20.0 0.00 0.01 0.01 45 1006.1
20260505001012 43 289 7.8 13.9 0.00 0.01 0.01 45 1006.0
20260505000508 43 321 6.1 17.4 0.00 0.01 0.01 45 1005.9
20260505000030 44 299 8.7 16.5 0.00 0.01 0.01 45 1005.9
20260504235510 44 299 7.8 20.0 0.00 0.01 0.01 44 1005.9
20260504235012 44 275 9.6 20.0 0.00 0.01 0.01 44 1005.9
20260504234526 44 295 10.4 20.0 0.00 0.01 0.01 44 1005.8
20260504234008 44 306 9.6 18.2 0.00 0.01 0.01 43 1005.8
20260504233509 44 298 8.7 15.6 0.00 0.01 0.01 43 1005.8
20260504233029 44 273 9.6 15.6 0.00 0.01 0.01 43 1005.7
20260504232511 44 253 7.8 15.6 0.00 0.01 0.01 43 1005.6
20260504232007 44 277 8.7 14.8 0.00 0.01 0.01 44 1005.7
20260504231525 44 304 7.0 18.2 0.00 0.01 0.01 44 1005.6
20260504231010 44 265 11.3 20.9 0.00 0.01 0.01 44 1005.6
20260504230508 44 279 7.8 16.5 0.00 0.01 0.01 45 1005.5
20260504230023 44 285 8.7 15.6 0.00 0.01 0.01 45 1005.5
20260504225511 44 323 7.0 16.5 0.00 0.01 0.01 45 1005.5
20260504225006 44 298 8.7 16.5 0.00 0.01 0.01 46 1005.5
20260504224528 44 272 5.2 18.2 0.00 0.01 0.01 46 1005.5
20260504224011 44 269 9.6 16.5 0.00 0.01 0.01 45 1005.3
20260504223507 44 259 9.6 14.8 0.00 0.01 0.01 46 1005.2
20260504223028 44 340 6.1 15.6 0.00 0.01 0.01 46 1005.1
20260504222507 44 275 7.8 15.6 0.00 0.01 0.01 47 1005.1
20260504222010 44 252 8.7 14.8 0.00 0.01 0.01 48 1005.3
20260504221528 43 302 6.1 16.5 0.00 0.01 0.01 48 1005.3
20260504221007 43 279 9.6 16.5 0.00 0.01 0.01 47 1005.3
20260504220508 43 306 5.2 20.0 0.00 0.01 0.01 47 1005.2
20260504220021 43 275 12.2 20.0 0.00 0.01 0.01 47 1005.2
20260504215507 43 305 11.3 20.0 0.00 0.01 0.01 47 1005.1
20260504215004 43 294 8.7 23.5 0.00 0.01 0.01 47 1005.1
20260504214506 43 250 13.0 23.5 0.00 0.01 0.01 47 1005.1
20260504214004 43 309 11.3 19.1 0.00 0.01 0.01 49 1005.2
20260504213505 43 281 6.1 18.2 0.00 0.01 0.01 52 1005.2
20260504213010 42 262 6.1 19.1 0.00 0.01 0.01 52 1005.2
20260504212506 42 309 8.7 20.0 0.00 0.01 0.01 52 1005.2
20260504212004 42 286 10.4 20.0 0.00 0.01 0.01 53 1005.2
20260504211513 0 314 7.8 17.4 0.00 0.01 0.01 55 1005.2
20260504211007 42 341 10.4 17.4 0.00 0.01 0.01 55 1005.2
20260504210507 42 331 6.1 15.6 0.00 0.01 0.01 56 1005.0
20260504210017 42 337 7.0 19.1 0.00 0.01 0.01 57 1005.0
20260504205507 42 270 8.7 19.1 0.00 0.01 0.01 57 1005.0
20260504205010 42 304 8.7 20.0 0.00 0.01 0.01 57 1005.0
20260504204524 42 286 9.6 20.0 0.00 0.01 0.01 57 1004.9
20260504204003 42 286 9.6 20.9 0.00 0.01 0.01 57 1004.9
20260504203503 42 303 7.8 20.9 0.00 0.01 0.01 57 1004.8
20260504203018 42 311 8.7 18.2 0.00 0.01 0.01 57 1004.7
20260504202508 42 286 11.3 22.6 0.00 0.01 0.01 57 1004.7
20260504202006 42 265 11.3 22.6 0.00 0.01 0.01 57 1004.7
20260504201511 42 241 7.8 21.7 0.00 0.01 0.01 58 1004.6
20260504201006 42 271 8.7 19.1 0.00 0.01 0.01 58 1004.5
20260504200511 42 280 7.8 16.5 0.00 0.01 0.01 58 1004.5
20260504200016 43 286 9.6 20.0 0.00 0.01 0.01 58 1004.5
20260504195504 43 270 7.8 20.0 0.00 0.01 0.01 58 1004.4
20260504195007 43 308 8.7 18.2 0.00 0.01 0.01 58 1004.3
20260504194531 43 283 8.7 18.2 0.00 0.01 0.01 58 1004.3
20260504194010 43 291 8.7 18.2 0.00 0.01 0.01 57 1004.1
20260504193510 43 241 8.7 17.4 0.00 0.01 0.01 58 1004.1
20260504193014 43 283 8.7 19.1 0.00 0.01 0.01 57 1003.9
20260504192503 43 240 10.4 19.1 0.00 0.01 0.01 57 1003.9
20260504192004 43 304 7.8 18.2 0.00 0.01 0.01 57 1003.8
20260504191507 44 261 7.8 18.2 0.00 0.01 0.01 58 1003.7
20260504191006 44 248 6.1 19.1 0.00 0.01 0.01 58 1003.7
20260504190505 43 319 7.0 22.6 0.00 0.01 0.01 58 1003.6
20260504190012 44 307 11.3 22.6 0.00 0.01 0.01 57 1003.5
20260504185509 44 315 13.9 22.6 0.00 0.01 0.01 58 1003.5
20260504185005 44 271 11.3 20.9 0.00 0.01 0.01 58 1003.3
20260504184518 44 346 11.3 19.1 0.00 0.01 0.01 57 1003.3
20260504184008 44 311 8.7 21.7 0.00 0.01 0.01 57 1003.3
20260504183509 44 252 10.4 22.6 0.00 0.01 0.01 56 1003.1
20260504183022 44 269 9.6 22.6 0.00 0.01 0.01 58 1003.1
20260504182509 44 322 13.0 22.6 0.00 0.01 0.01 57 1002.9
20260504182011 44 273 12.2 21.7 0.00 0.01 0.01 56 1002.9
20260504181508 45 281 11.3 20.9 0.00 0.01 0.01 56 1002.7
20260504181004 45 294 12.2 17.4 0.00 0.01 0.01 54 1002.6
20260504180504 46 300 10.4 16.5 0.00 0.01 0.01 54 1002.5
20260504180015 46 243 8.7 18.2 0.00 0.01 0.01 54 1002.3
20260504175507 46 319 9.6 18.2 0.00 0.01 0.01 54 1002.4
20260504175005 47 344 8.7 16.5 0.00 0.01 0.01 54 1002.4
20260504174513 46 313 8.7 21.7 0.00 0.01 0.01 56 1002.3
20260504174007 45 290 10.4 21.7 0.00 0.01 0.01 57 1002.4
20260504173506 45 283 8.7 21.7 0.00 0.01 0.01 57 1002.3
20260504173021 44 300 13.0 20.9 0.00 0.01 0.01 57 1002.3
20260504172510 44 294 13.0 20.9 0.00 0.01 0.01 58 1002.3
20260504172009 44 255 7.8 21.7 0.00 0.01 0.01 59 1002.2
20260504171526 44 309 9.6 21.7 0.00 0.01 0.01 59 1002.1
20260504171014 44 317 9.6 21.7 0.00 0.01 0.01 58 1002.0
20260504170504 44 257 10.4 17.4 0.00 0.01 0.01 59 1002.1
20260504151009 43 270 10.4 20.9 0.00 0.01 0.01 69 1000.5
20260504150509 43 310 10.4 20.9 0.00 0.01 0.01 69 1000.2
20260504141010 44 305 10.4 20.0 0.00 0.01 0.01 67 999.4
20260504140507 44 360 10.4 17.4 0.00 0.01 0.01 67 999.3
20260504130508 46 288 10.4 16.5 0.00 0.01 0.01 72 998.2
20260504110505 47 265 6.1 11.3 0.01 0.01 0.01 79 996.6
20260504100509 51 308 7.0 14.8 0.00 0.00 0.00 64 996.7
20260504082003 61 234 3.5 8.7 0.00 0.00 0.00 37 994.5
20260504081505 61 242 3.5 8.7 0.00 0.00 0.00 36 994.5
20260504081003 61 234 4.3 8.7 0.00 0.00 0.00 36 994.5
20260504080504 61 244 4.3 13.0 0.00 0.00 0.00 36 994.4